Weather History for CWZL - January, 2014

Change the Weather History Date:

Wednesday, January 29, 2014

  Actual Average Record
Temperature  
Mean Temperature 42 °F -  
Max Temperature 48 °F - - ()
Min Temperature 36 °F - - ()
Degree Days  
Heating Degree Days 23    
Moisture  
Dew Point 33 °F    
Average Humidity 66    
Maximum Humidity 97    
Minimum Humidity 33    
Precipitation  
Precipitation 0.00 in - - ()
Sea Level Pressure  
Sea Level Pressure 30.00 in    
Wind  
Wind Speed 9 mph ()    
Max Wind Speed 14 mph    
Max Gust Speed 22 mph    
T = Trace of Precipitation, MM = Missing Value Source: Averaged Metar Reports

Daily Weather History Graph

Daily Weather History Graph

Search for Another Location

Airport or City:

Trip Planner

Search our weather history database for the weather conditions in past years. The results will help you decide how hot, cold, wet, or windy it might be!

Date:

Astronomy

Jan. 29, 2014 Rise Set
Actual Time 8:34 AM PST 5:25 PM PST
Civil Twilight 7:56 AM PST 6:03 PM PST
Nautical Twilight 7:14 AM PST 6:45 PM PST
Astronomical Twilight 6:33 AM PST 7:26 PM PST
Moon 7:17 AM PST 4:34 PM PST
Length of Visible Light 10h 07m
Length of Day
8h 51m
Waning Crescent, 2% of the Moon is Illuminated
Jan 29
Waning Crescent
Jan 30
New
Feb 6
First Quarter
Feb 14
Full
Feb 22
Last Quarter

Hourly Weather History & Observations

Time (PST) Temp. Windchill Dew Point Humidity Pressure Visibility Wind Dir Wind Speed Gust Speed Precip Events Conditions
12:00 AM 41.5 °F 37.1 °F 38.5 °F 89% 30.11 in - NNW 6.9 mph - N/A   Unknown
1:00 AM 40.6 °F 34.3 °F 38.1 °F 91% 30.09 in - NNW 10.4 mph - N/A   Unknown
2:00 AM 39.7 °F 34.3 °F 37.6 °F 92% 30.08 in - NNW 8.1 mph - N/A   Unknown
3:00 AM 39.9 °F 33.9 °F 37.0 °F 89% 30.07 in - NW 9.2 mph - N/A   Unknown
4:00 AM 40 °F - 37 °F 84% 30.05 in - NW 12.7 mph - -  
4:00 AM 40.5 °F 33.2 °F 36.9 °F 87% 30.05 in - NW 12.7 mph 19.6 mph N/A   Unknown
5:00 AM 39.2 °F 33.0 °F 35.6 °F 87% 30.04 in - WNW 9.2 mph - N/A   Unknown
6:00 AM 37.2 °F 31.9 °F 35.4 °F 93% 30.04 in - West 6.9 mph - N/A   Unknown
7:00 AM 36.7 °F 30.5 °F 35.8 °F 97% 30.03 in - West 8.1 mph - N/A   Unknown
8:00 AM 40.6 °F 35.4 °F 31.3 °F 69% 30.01 in - West 8.1 mph - N/A   Unknown
9:00 AM 43.0 °F 37.7 °F 26.6 °F 52% 30.01 in - West 9.2 mph - N/A   Unknown
10:00 AM 46 °F - 26 °F 33% 30.01 in - NW 12.7 mph - -  
10:00 AM 45.5 °F 39.6 °F 26.1 °F 47% 30.01 in - NW 12.7 mph 20.7 mph N/A   Unknown
11:00 AM 46.0 °F 39.9 °F 27.3 °F 48% 30.00 in - NW 13.8 mph 21.9 mph N/A   Unknown
12:00 PM 46.9 °F - 28.8 °F 49% 29.99 in - WNW 11.5 mph - N/A   Unknown
1:00 PM 48.9 °F - 28.6 °F 45% 29.97 in - NW 10.4 mph - N/A   Unknown
2:00 PM 48.7 °F - 28.0 °F 45% 29.97 in - NW 10.4 mph - N/A   Unknown
3:00 PM 48.0 °F - 31.3 °F 52% 29.97 in - NW 8.1 mph - N/A   Unknown
4:00 PM 47 °F - 30 °F 40% 29.97 in - NW 10.4 mph - -  
4:00 PM 47.3 °F - 30.2 °F 52% 29.97 in - NW 10.4 mph - N/A   Unknown
5:00 PM 46.8 °F - 30.9 °F 54% 29.97 in - NW 11.5 mph 18.4 mph N/A   Unknown
6:00 PM 45.7 °F 41.0 °F 30.9 °F 56% 29.96 in - NW 9.2 mph - N/A   Unknown
7:00 PM 45.0 °F 41.2 °F 31.5 °F 59% 29.95 in - NW 6.9 mph - N/A   Unknown
8:00 PM 43.3 °F 36.8 °F 36.7 °F 77% 29.96 in - NNW 12.7 mph - N/A   Unknown
9:00 PM 42.6 °F 36.8 °F 35.6 °F 76% 29.96 in - NNW 10.4 mph - N/A   Unknown
10:00 PM 43 °F - 35 °F 63% 29.96 in - NNW 9.2 mph - -  
10:00 PM 42.8 °F 37.5 °F 34.5 °F 73% 29.96 in - NNW 9.2 mph - N/A   Unknown
11:00 PM 43.2 °F 39.0 °F 31.5 °F 63% 29.95 in - NW 6.9 mph - N/A   Unknown